Terminal Aerodrome Forecast
Issued by NWS La Crosse, WI

Home | Current Version | Previous Version | Text Only | Print | Product List | Glossary On
Versions: 1 2 3 4 5 6 7 8 9 10 11 12 13 14 15 16 17 18 19 20 21 22 23 24 25 26 27 28 29 30 31 32 33 34 35 36 37 38 39 40 41 42
000
FTUS43 KARX 041846 AAA
TAFRST
TAF AMD
KRST 041846Z 0419/0518 20012KT 1 1/2SM BR OVC003
     FM050100 24009KT P6SM BKN015
     FM050300 24009KT P6SM SCT025
     FM050900 21008KT P6SM BKN060
     FM051200 18012KT P6SM BKN080=

USA.gov is the U.S. government's official web portal to all federal, state and local government web resources and services.